Weather in Meken-Yurt

Russia / Chechen Republic     43°36′48″N   45°24′26″E
temp.,
°C
wind,
m/s
gust,
m/s
humid.,
%
clouds,
%
prec.,
mm/h
press.,
hPa
HPBL,
m
3 august, tue
tue300:00+23wsw225971 0.0 101125
03:00+23w226110 0.0 101119
06:00+24wsw125895 0.0 101279
09:00+30w12385 0.0 1011712
12:00+34n32285 0.0 10111573
15:00+36n32240 0.0 10102267
18:00+34nw12302 0.0 1010133
21:00+28ssw22410 0.0 101023
4 august, wed
wed400:00+26ssw22500 0.0 101122
03:00+25ssw22570 0.0 101221
06:00+26sw23510 0.0 101281
09:00+33wnw45320 0.0 1012911
12:00+37wnw43240 0.0 10112392
15:00+38wnw43200 0.0 10103291
18:00+36wnw4522100 0.0 1010927
21:00+30wsw4941100 0.0 1011175
5 august, thu
thu500:00+28sw3543100 0.0 1012119
03:00+26wsw335097 0.2 101251
06:00+23wsw3672100 2.9 1012117
09:00+30wnw674392 3.6 1013670
12:00+35nw44280 0.0 10111524
15:00+37nw322253 0.0 10102628
18:00+36wnw11250 0.0 1009493
21:00+29wsw22400 0.0 101035
6 august, fri
fri600:00+27sw22500 0.0 101026
03:00+25sw11600 0.0 100921
06:00+26sw11590 0.0 100956
09:00+32ese34380 0.0 1010973
12:00+38e56220 0.0 10072022
15:00+39e98160 0.0 10052460
18:00+34e811200 0.0 10051045
21:00+27e61342100 0.0 1006542
7 august, sat
sat700:00+25ene3757100 0.0 1006293
03:00+24e355883 0.0 1005128
06:00+24ne0158100 0.0 100597
09:00+30n113787 0.0 1005599
12:00+37nne112437 0.0 10041050
15:00+40ssw11175 0.0 10021627
18:00+38wsw232111 0.0 1002237
21:00+29nw71348100 0.8 1007474